Location: ??????????
(54.4061°N, 22.6114°E)
Time: 01:02:30
(UTC+00:00)

MOS 1 - Pass Details

Date: 23 October 2019
Orbit: 878 x 891 km, 99.2° (Epoch: 14 November)

Event Time Altitude Azimuth Distance (km) Brightness Sun altitude
Exits shadow 17:34:53 16° 160° (SSE) 2,148 6.0 -21.1°
Maximum altitude 17:39:32 88° 73° (ENE) 889 4.2 -21.7°
Drops below altitude 10° 17:45:13 10° 343° (NNW) 2,549 7.0 -22.5°
Sets 17:47:37 0° 344° (NNW) 3,491 7.8 -22.9°
